Flag for Poland Weather past 2 weeks in Chorzów, Poland

Now
39 °F

Clear.


Feels Like: 39 °F
Forecast: 36 / 53 °F
Wind: 2 mph from Northwest

Location: Katowice Airport

Current Time: Apr 20, 2015 at 1:49:09 AM

Latest Report: Apr 20, 2015 at 1:30 AM


Visibility: 10 mi

Pressure: 30.07 "Hg

Humidity: 75%

Dew point: 32 °F

Location of ChorzówLocation

Historic Weather in Chorzów — Graph

°F

Chorzów temperature yesterday

Maximum temperature yesterday: 52 °F (at 4:00 PM)
Minimum temperature yesterday: 32 °F (at 6:00 AM)
Average temperature yesterday: 43 °F

Past Weeks' High & Low Weather Summary

 TemperatureHumidityPressure
High68 °F (Apr 11, 2:30 PM)100% (Apr 5, 12:00 AM)30.48 "Hg (Apr 5, 12:00 AM)
Low28 °F (Apr 5, 11:00 PM)18% (Apr 9, 3:00 PM)29.83 "Hg (Apr 16, 2:30 AM)
Average46 °F65%30.15 "Hg
* Reported Midnight between Apr 4 and Apr 5 — Apr 20 12:30 AM, Chorzów, Weather by CustomWeather, © 2015

Note: Actual official high and low records may vary slightly from our data, if they occured in-between our weather recording intervals... More about our weather records

Advertising

Chorzów weather history for previous 24 hours

 ConditionsComfort  
Time TempWeatherWind HumidityBarometerVisibility
12:30 AM
Mon, Apr 20
39 °FClear.1 mph75%30.09 "Hg10 mi
12:00 AM41 °FClear.2 mph70%30.09 "Hg10 mi
11:30 PM
Sun, Apr 19
41 °FClear.1 mph70%30.09 "Hg10 mi
11:00 PM41 °FClear.3 mph70%30.09 "Hg10 mi
10:30 PM41 °FClear.5 mph70%30.07 "Hg10 mi
10:00 PM43 °FClear.5 mph66%30.07 "Hg10 mi
9:30 PM45 °FClear.6 mph61%30.07 "Hg10 mi
9:00 PM45 °FClear.5 mph66%30.07 "Hg10 mi
8:30 PM46 °FSunny.7 mph57%30.07 "Hg10 mi
8:00 PM48 °FSunny.8 mph54%30.07 "Hg10 mi
7:30 PM50 °FPassing clouds.10 mph50%30.07 "HgN/A
7:00 PM50 °FPassing clouds.10 mph47%30.07 "HgN/A
6:30 PM50 °FSunny.13 mph43%30.07 "Hg10 mi
6:00 PM52 °FSunny.13 mph41%30.07 "Hg10 mi
5:30 PM52 °FPassing clouds.14 mph38%30.07 "HgN/A
5:00 PM52 °FScattered clouds.12 mph41%30.07 "HgN/A
4:30 PM52 °FScattered clouds.15 mph41%30.07 "HgN/A
4:00 PM52 °FPartly sunny.17 mph41%30.07 "HgN/A
3:30 PM50 °FPartly sunny.16 mph43%30.09 "HgN/A
3:00 PM50 °FScattered clouds.16 mph47%30.09 "HgN/A
2:30 PM50 °FPartly sunny.14 mph47%30.09 "HgN/A
2:00 PM48 °FPartly sunny.12 mph50%30.12 "HgN/A
1:30 PM48 °FPartly sunny.12 mph50%30.12 "HgN/A
1:00 PM46 °FPartly sunny.12 mph53%30.12 "HgN/A
12:30 PM46 °FScattered clouds.13 mph53%30.12 "HgN/A
12:00 PM46 °FScattered clouds.13 mph53%30.12 "HgN/A
11:30 AM46 °FScattered clouds.14 mph53%30.12 "HgN/A
11:00 AM45 °FScattered clouds.12 mph57%30.12 "HgN/A
10:30 AM45 °FScattered clouds.10 mph57%30.12 "HgN/A
10:00 AM45 °FPassing clouds.10 mph61%30.15 "HgN/A
9:30 AM43 °FSunny.9 mph66%30.15 "Hg10 mi
9:00 AM41 °FPassing clouds.7 mph70%30.12 "HgN/A
8:30 AM39 °FPassing clouds.3 mph75%30.15 "HgN/A
8:00 AM36 °FPassing clouds.6 mph87%30.15 "HgN/A
7:30 AM34 °FSunny.5 mph93%30.15 "Hg10 mi
7:00 AM32 °FSunny.3 mph93%30.15 "Hg10 mi
6:30 AM32 °FClear.6 mph93%30.12 "Hg10 mi
6:00 AM32 °FClear.6 mph93%30.12 "Hg10 mi
5:30 AM34 °FClear.3 mph93%30.12 "Hg10 mi
5:00 AM36 °FClear.3 mph87%30.12 "Hg10 mi
4:30 AM36 °FClear.5 mph87%30.12 "Hg10 mi
4:00 AM36 °FClear.3 mph87%30.12 "Hg10 mi
3:30 AM37 °FClear.5 mph87%30.12 "Hg10 mi
3:00 AM37 °FPassing clouds.6 mph87%30.12 "HgN/A
2:30 AM37 °FPassing clouds.3 mph87%30.12 "HgN/A
2:00 AM37 °FPassing clouds.9 mph87%30.12 "HgN/A
1:30 AM37 °FSprinkles. Passing clouds.6 mph87%30.12 "HgN/A
1:00 AM37 °FPassing clouds.6 mph87%30.15 "HgN/A
Weather by CustomWeather, © 2015

See weather overviewHow to use our weather pages